Weather History for Branson, MO

Change the Weather History Date:

Friday, June 28, 2013

  Actual Average (KHRO) Record (KHRO)
Temperature  
Mean Temperature 82 °F 76 °F  
Max Temperature 91 °F 87 °F 107 °F (2012)
Min Temperature 73 °F 66 °F 50 °F (1926)
Degree Days  
Heating Degree Days 0 0  
Month to date heating degree days 3  
Since 1 June heating degree days 3  
Since 1 July heating degree days 4001  
Cooling Degree Days 17 12  
Month to date cooling degree days 243  
Year to date cooling degree days 382  
Since 1 June cooling degree days 243  
Growing Degree Days 32 (Base 50)    
Moisture  
Dew Point 65 °F    
Average Humidity 59    
Maximum Humidity 73    
Minimum Humidity 31    
Precipitation  
Precipitation 0.00 in 0.13 in 3.14 in (1902)
Month to date precipitation 3.99  
Year to date precipitation 21.99  
Snow  
Snow 0.00 in 0.00 in - ()
Month to date snowfall 0.0  
Since 1 June snowfall 0.0  
Since 1 July snowfall 11.5  
Snow Depth -    
Sea Level Pressure  
Sea Level Pressure 29.90 in    
Wind  
Wind Speed 5 mph (NW)    
Max Wind Speed 16 mph    
Max Gust Speed 28 mph    
Visibility 10 miles    
Events Rain , Thunderstorm    
T = Trace of Precipitation, MM = Missing Value Source: NWS Daily Summary

Daily Weather History Graph

Daily Weather History Graph

Search for Another Location

Airport:

Trip Planner

Search our weather history database for the weather conditions in past years. The results will help you decide how hot, cold, wet, or windy it might be!

Date:

Astronomy

Jun. 28, 2013 Rise Set
Actual Time 5:57 AM CDT 8:35 PM CDT
Civil Twilight 5:26 AM CDT 9:05 PM CDT
Nautical Twilight 4:48 AM CDT 9:43 PM CDT
Astronomical Twilight 4:06 AM CDT 10:25 PM CDT
Moon No Moon Rise 11:54 AM CDT (6/28)
Length of Visible Light 15h 39m
Length of Day
14h 38m
Waning Gibbous, 66% of the Moon is Illuminated
Jun 28
Waning Gibbous
Jun 29
Last Quarter
Jul 8
New
Jul 15
First Quarter
Jul 22
Full

Hourly Weather History & Observations

Time (CDT) Temp. Heat Index Dew Point Humidity Pressure Visibility Wind Dir Wind Speed Gust Speed Precip Events Conditions
12:15 AM 84.2 °F 89.6 °F 71.6 °F 66% 29.93 in 10.0 mi Calm Calm - N/A   Partly Cloudy
12:35 AM 84.2 °F 89.6 °F 71.6 °F 66% 29.94 in 10.0 mi SW 3.5 mph - N/A   Clear
12:55 AM 82.4 °F 87.2 °F 71.6 °F 70% 29.94 in 10.0 mi SW 4.6 mph - N/A   Clear
1:15 AM 82.4 °F 87.2 °F 71.6 °F 70% 29.91 in 10.0 mi SSW 5.8 mph - N/A   Clear
1:35 AM 82.4 °F 87.2 °F 71.6 °F 70% 29.89 in 10.0 mi SSW 6.9 mph - N/A   Clear
1:55 AM 84.2 °F 89.6 °F 71.6 °F 66% 29.88 in 10.0 mi SW 8.1 mph - N/A   Clear
2:15 AM 84.2 °F 89.6 °F 71.6 °F 66% 29.87 in 10.0 mi SSW 6.9 mph - N/A   Clear
2:35 AM 84.2 °F 89.6 °F 71.6 °F 66% 29.89 in 10.0 mi WSW 8.1 mph - N/A Thunderstorm Partly Cloudy
2:55 AM 84.2 °F 89.6 °F 71.6 °F 66% 29.89 in 10.0 mi WSW 3.5 mph - N/A   Mostly Cloudy
3:15 AM 80.6 °F 83.9 °F 69.8 °F 70% 29.92 in 10.0 mi North 16.1 mph 21.9 mph N/A   Mostly Cloudy
3:35 AM 77.0 °F - 66.2 °F 69% 29.90 in 10.0 mi North 5.8 mph 16.1 mph N/A   Mostly Cloudy
3:55 AM 77.0 °F - 66.2 °F 69% 29.90 in 10.0 mi Calm Calm - N/A   Partly Cloudy
4:15 AM 75.2 °F - 66.2 °F 73% 29.89 in 10.0 mi Calm Calm - N/A   Scattered Clouds
4:35 AM 75.2 °F - 66.2 °F 73% 29.91 in 10.0 mi WNW 3.5 mph - N/A   Mostly Cloudy
4:55 AM 77.0 °F - 64.4 °F 65% 29.90 in 10.0 mi North 5.8 mph - N/A   Mostly Cloudy
5:15 AM 75.2 °F - 66.2 °F 73% 29.89 in 10.0 mi ENE 4.6 mph - N/A Rain Light Rain
5:35 AM 75.2 °F - 64.4 °F 69% 29.90 in 10.0 mi North 5.8 mph - N/A   Mostly Cloudy
5:55 AM 75.2 °F - 64.4 °F 69% 29.90 in 10.0 mi Calm Calm - N/A   Scattered Clouds
6:15 AM 73.4 °F - 64.4 °F 73% 29.91 in 10.0 mi Calm Calm - N/A   Clear
6:35 AM 73.4 °F - 64.4 °F 73% 29.91 in 10.0 mi Calm Calm - N/A   Clear
6:45 AM 73.4 °F - 64.4 °F 73% 29.91 in 10.0 mi Calm Calm - N/A   Overcast
7:45 AM 75.2 °F - 66.2 °F 73% 29.93 in 10.0 mi Calm Calm - N/A   Mostly Cloudy
8:45 AM 78.8 °F - 66.2 °F 65% 29.95 in 10.0 mi NW 6.9 mph - N/A   Mostly Cloudy
9:45 AM 82.4 °F 83.9 °F 64.4 °F 54% 29.95 in 10.0 mi NNW 11.5 mph - N/A   Mostly Cloudy
10:45 AM 84.2 °F 85.0 °F 62.6 °F 48% 29.96 in 10.0 mi NW 11.5 mph - N/A   Mostly Cloudy
11:55 AM 86.0 °F 86.6 °F 62.6 °F 45% 29.96 in 10.0 mi North 11.5 mph - N/A   Partly Cloudy
12:46 PM 89.6 °F 88.9 °F 59.0 °F 36% 29.96 in 10.0 mi North 11.5 mph - N/A   Scattered Clouds
1:45 PM 91.4 °F 89.9 °F 57.2 °F 31% 29.93 in 10.0 mi NW 10.4 mph - N/A   Scattered Clouds
2:45 PM 91.4 °F 89.9 °F 57.2 °F 31% 29.91 in 10.0 mi NW 11.5 mph 27.6 mph N/A   Mostly Cloudy
3:45 PM 89.6 °F 88.1 °F 57.2 °F 33% 29.89 in 10.0 mi NNW 11.5 mph 27.6 mph N/A   Mostly Cloudy
4:48 PM 87.8 °F 87.1 °F 59.0 °F 38% 29.89 in 10.0 mi NW 12.7 mph 19.6 mph N/A   Mostly Cloudy
5:50 PM 89.6 °F 89.5 °F 60.8 °F 38% 29.87 in 10.0 mi WNW 13.8 mph - N/A   Scattered Clouds
6:45 PM 86.0 °F 86.6 °F 62.6 °F 45% 29.85 in 10.0 mi WNW 12.7 mph 21.9 mph N/A   Scattered Clouds
7:47 PM 84.2 °F 85.6 °F 64.4 °F 51% 29.86 in 10.0 mi NW 9.2 mph 17.3 mph N/A   Partly Cloudy
8:46 PM 82.4 °F 82.9 °F 60.8 °F 48% 29.86 in 10.0 mi NNW 11.5 mph 17.3 mph N/A   Partly Cloudy
9:15 PM 80.6 °F 80.8 °F 57.2 °F 45% 29.86 in 10.0 mi NNW 10.4 mph - N/A   Clear
9:35 PM 78.8 °F - 57.2 °F 47% 29.87 in 10.0 mi NNW 8.1 mph - N/A   Clear
11:55 PM 73.4 °F - 57.2 °F 57% 29.89 in 10.0 mi Calm Calm - N/A   Clear